sat.trackr.live / text

‹ back to catalog

STARLINK-4171

NORAD 52878 · 2022-062BA

PAYLOAD ACTIVE UNKNOWN

§ Identity

Operator
Country
US
Launch date
2022-06-17
Launch site
AFETR
Launch vehicle
Mass (kg)
RCS (m²)

Purposes: comms

External: N2YO · Heavens-Above · Gunter

§ Orbital elements

Epoch: 2026-05-25T01:21:50.016096Z

Period
95.44 min
Inclination
53.2125°
Eccentricity
0.0001273
Mean motion
15.08845594 rev/d
Perigee alt
538.8 km
Apogee alt
540.6 km
Semi-major
6,917.9 km
B*
-6.4820e-6
RAAN
31.2941°
Arg perigee
73.9606°
Mean anomaly
286.1526°
Rev number
21,759

§ Raw data

STARLINK-41711 52878U 22062BA  26145.05682889 -.00000391  00000+0 -64820-5 0  99952 52878  53.2125  31.2941 0001273  73.9606 286.1526 15.08845594217597

JSON: /api/v1/satellites/52878 · /tle

For live sub-satellite position, see the globe view (requires WebGL).

§ Visibility from observer

Set your observer location to see the next 7 days of passes ≥ 10°. The values pass through the URL so the page stays shareable.

No JS? Fill the form by hand. The geolocation button needs JavaScript.